Regional Weather Roundup
Issued by NWS Memphis, TN

Home | Current Version | Previous Version | Text Only | Print | Product List | Glossary On
Versions: 1 2 3 4 5 6 7 8 9 10 11 12 13 14 15 16 17 18 19 20 21 22 23 24 25 26 27 28 29 30 31 32 33 34 35 36 37 38 39 40 41 42 43 44 45 46 47 48 49 50
000
ASUS44 KMEG 290210
RWRMEG
MEMPHIS CWA HOURLY WEATHER ROUNDUP
NATIONAL WEATHER SERVICE MEMPHIS TN
900 PM CDT MON JUL 28 2014

...WEST TENNESSEE...

CITY           SKY/WX    TMP DP  RH WIND       PRES   REMARKS
MEMPHIS INTL   PTCLDY    79  62  56 CALM      30.04R
NWS MEMPHIS      N/A     74 N/A N/A MISG        N/A
JACKSON        CLEAR     71  63  75 CALM      30.03R
LEXINGTON      PTCLDY    70  63  78 CALM      30.02R
SAVANNAH       CLEAR     69  67  93 CALM      30.04R
DYERSBURG      PTCLDY    75  57  53 NE5       30.05R
UNION CITY     CLEAR     70  63  78 N5        30.03R
PARIS          CLEAR     69  60  73 N5        30.05R


...EASTERN ARKANSAS...

CITY           SKY/WX    TMP DP  RH WIND       PRES   REMARKS
JONESBORO      CLEAR     72  67  84 NW3       30.03R
WEST MEMPHIS   CLEAR     73  68  84 CALM      30.03R
BATESVILLE     MOCLDY    73  63  68 CALM      30.06R
NEWPORT        PTCLDY    78  65  64 NW3       30.05R
WALNUT RIDGE   PTCLDY    75  63  64 N6        30.04R
BLYTHEVILLE    PTCLDY    74  67  78 CALM      30.04R
SEARCY         CLEAR     72  67  84 W3        30.07R
STUTTGART      PTCLDY    75  66  73 W3        30.07R
PINE BLUFF     MOCLDY    80  64  58 CALM      30.07R
MONTICELLO     MOCLDY    75  68  78 CALM      30.07R


...NORTH MISSISSIPPI...

CITY           SKY/WX    TMP DP  RH WIND       PRES   REMARKS
TUPELO         CLEAR     75  64  68 CALM      30.02R
OLIVE BRANCH   CLEAR     73  66  78 CALM      30.04R
CLARKSDALE     CLEAR     73  70  88 W3        30.06R
CORINTH        CLEAR     72  64  78 CALM      30.03R
GRENADA        PTCLDY    72  66  83 CALM      30.05R
GREENWOOD      CLEAR     73  67  81 NW3       30.05R
COLUMBUS       CLEAR     74  65  72 NW5       30.03R
STARKVILLE     FAIR      73  64  73 CALM      30.04R
GOLDEN TRIANGL CLEAR     75  63  64 NW5       30.04R


...SOUTHEAST MISSOURI...

CITY           SKY/WX    TMP DP  RH WIND       PRES   REMARKS
WEST PLAINS    CLEAR     72  56  57 N6        30.11R
POPLAR BLUFF   PTCLDY    74  60  61 N6        30.04R
CAPE GIRARDEAU CLEAR     73  60  63 N12       30.06R


...NORTHWEST ALABAMA...

CITY           SKY/WX    TMP DP  RH WIND       PRES   REMARKS
MUSCLE SHOALS  CLEAR     74  62  66 N5        30.03R


...MIDDLE TENNESSEE...

CITY           SKY/WX    TMP DP  RH WIND       PRES   REMARKS
NASHVILLE      PTCLDY    75  58  55 N8        30.02R
CLARKSVILLE    CLEAR     71  58  63 N8        30.03R
DICKSON        CLEAR     70  61  73 N6        30.03R
COLUMBIA       CLEAR     73  63  68 CALM      30.01R
LEWISBURG      PTCLDY    72  61  68 CALM      30.01R


...WESTERN KENTUCKY...

CITY           SKY/WX    TMP DP  RH WIND       PRES   REMARKS
PADUCAH        PTCLDY    73  60  63 N9        30.04R
FORT CAMPBELL  CLEAR     72  58  60 N8        30.03R


...CENTRAL ARKANSAS...

CITY           SKY/WX    TMP DP  RH WIND       PRES   REMARKS
LITTLE ROCK    PTCLDY    78  63  59 CALM      30.07R


SKY/WX REPORTED AS FAIR MEANS FEW OR NO CLOUDS BELOW
12 THOUSAND FEET.




USA.gov is the U.S. government's official web portal to all federal, state and local government web resources and services.